Location: Unspecified
(48.2082°N, 0.0000°E)
Time: 09:02:09
(UTC+00:00)

Transit 4A - Pass Details

Date: 20 June 2019
Orbit: 864 x 981 km, 66.8° (Epoch: 25 August)

Event Time Altitude Azimuth Distance (km) Brightness Sun altitude
Rises 10:28:17 0° 251° (WSW) 3,635 10.9 59.1°
Reaches altitude 10° 10:31:08 10° 262° (W) 2,706 10.3 59.4°
Maximum altitude 10:36:42 31° 323° (NW) 1,642 9.3 60.1°
Drops below altitude 10° 10:42:22 10° 25° (NNE) 2,744 10.4 60.7°
Sets 10:45:17 0° 35° (NE) 3,694 10.9 61.0°
